GEC67 EKCH-EBLG

Flight info

Callsign GEC67
Flight time 1h 9m
Altitude 30000
Route KOPEX DCT NITLA/N0445F240 T148 MICOS N850 ELSOB Y348 MAWEQ Z718 OSNAD M170 HMM N853 IRBUP Z717 NEREL T855 LNO
Aircraft B77L/H-SDE1E2E3FGHIJ2J3J4J5M1RWXY/LB1D1

Departure

Time 2026-05-06 12:09
Airport Copenhagen Kastrup Airport (EKCH)

Arrival

Time 2026-05-06 13:19
Airport Liège Airport (EBLG)
Time Latitude Longitude Altitude Speed Heading
2026-05-06 11:33 55.61876 12.67137 28 ft 0 kts 79°
2026-05-06 11:56 55.61874 12.67121 28 ft 4 kts 79°
2026-05-06 11:57 55.61869 12.67074 28 ft 4 kts 79°
2026-05-06 11:57 55.61865 12.67036 28 ft 4 kts 91°
2026-05-06 11:57 55.61871 12.66993 28 ft 4 kts 128°
2026-05-06 11:57 55.61891 12.66965 28 ft 4 kts 166°
2026-05-06 11:58 55.61916 12.66956 28 ft 4 kts 168°
2026-05-06 11:58 55.61925 12.66953 28 ft 0 kts 168°
2026-05-06 12:01 55.61906 12.66959 28 ft 7 kts 168°
2026-05-06 12:01 55.61855 12.66977 28 ft 8 kts 168°
2026-05-06 12:01 55.61760 12.67011 28 ft 16 kts 168°
2026-05-06 12:01 55.61648 12.67051 28 ft 16 kts 168°
2026-05-06 12:02 55.61535 12.67090 28 ft 16 kts 169°
2026-05-06 12:02 55.61423 12.67129 28 ft 16 kts 169°
2026-05-06 12:02 55.61313 12.67094 29 ft 16 kts 209°
2026-05-06 12:02 55.61301 12.66925 29 ft 17 kts 305°
2026-05-06 12:03 55.61365 12.66755 27 ft 17 kts 303°
2026-05-06 12:03 55.61430 12.66581 28 ft 21 kts 303°
2026-05-06 12:03 55.61537 12.66291 28 ft 30 kts 303°
2026-05-06 12:03 55.61646 12.65999 30 ft 28 kts 303°
2026-05-06 12:04 55.61752 12.65711 30 ft 28 kts 303°
2026-05-06 12:04 55.61857 12.65428 27 ft 28 kts 303°
2026-05-06 12:04 55.61963 12.65141 27 ft 27 kts 303°
2026-05-06 12:04 55.62006 12.64955 28 ft 13 kts 245°
2026-05-06 12:05 55.61935 12.64863 28 ft 13 kts 212°
2026-05-06 12:05 55.61844 12.64758 28 ft 20 kts 213°
2026-05-06 12:05 55.61708 12.64601 28 ft 24 kts 213°
2026-05-06 12:05 55.61569 12.64441 28 ft 24 kts 213°
2026-05-06 12:06 55.61427 12.64279 28 ft 24 kts 212°
2026-05-06 12:06 55.61285 12.64114 28 ft 24 kts 213°
2026-05-06 12:06 55.61144 12.63952 28 ft 24 kts 213°
2026-05-06 12:06 55.61002 12.63791 28 ft 24 kts 213°
2026-05-06 12:07 55.60863 12.63631 28 ft 24 kts 213°
2026-05-06 12:07 55.60722 12.63469 28 ft 24 kts 213°
2026-05-06 12:07 55.60597 12.63300 26 ft 19 kts 222°
2026-05-06 12:07 55.60506 12.63161 28 ft 17 kts 221°
2026-05-06 12:08 55.60403 12.63163 28 ft 17 kts 132°
2026-05-06 12:08 55.60345 12.63329 31 ft 15 kts 83°
2026-05-06 12:08 55.60421 12.63472 28 ft 25 kts 41°
2026-05-06 12:08 55.60782 12.64030 31 ft 115 kts 41°
2026-05-06 12:09 55.61587 12.65279 172 ft 179 kts 41°
2026-05-06 12:09 55.62526 12.66740 1200 ft 176 kts 41°
2026-05-06 12:09 55.63454 12.68172 2166 ft 184 kts 41°
2026-05-06 12:09 55.64498 12.69770 2530 ft 213 kts 41°
2026-05-06 12:10 55.65697 12.71598 2928 ft 238 kts 41°
2026-05-06 12:10 55.66990 12.73539 3689 ft 249 kts 41°
2026-05-06 12:10 55.68337 12.75558 4532 ft 258 kts 41°
2026-05-06 12:10 55.69691 12.77679 5416 ft 260 kts 49°
2026-05-06 12:11 55.70518 12.80529 6192 ft 267 kts 80°
2026-05-06 12:11 55.70414 12.83801 7113 ft 270 kts 108°
2026-05-06 12:11 55.69448 12.86648 8001 ft 275 kts 136°
2026-05-06 12:11 55.67815 12.88438 8826 ft 279 kts 158°
2026-05-06 12:12 55.65964 12.89606 9549 ft 287 kts 160°
2026-05-06 12:12 55.64063 12.90799 10389 ft 293 kts 160°
2026-05-06 12:12 55.62060 12.91876 10717 ft 314 kts 172°
2026-05-06 12:12 55.61838 12.91929 10731 ft 317 kts 175°
2026-05-06 12:13 55.60620 12.91856 10864 ft 332 kts 191°
2026-05-06 12:13 55.58443 12.90156 11091 ft 359 kts 218°
2026-05-06 12:13 55.56695 12.86925 11541 ft 370 kts 230°
2026-05-06 12:14 55.54979 12.83472 12361 ft 378 kts 227°
2026-05-06 12:14 55.53167 12.80077 13404 ft 379 kts 227°
2026-05-06 12:14 55.51602 12.76367 14168 ft 384 kts 244°
2026-05-06 12:14 55.50877 12.71887 14967 ft 385 kts 260°
2026-05-06 12:15 55.50422 12.67106 15718 ft 393 kts 259°
2026-05-06 12:15 55.49927 12.62409 16581 ft 396 kts 259°
2026-05-06 12:15 55.49402 12.57620 17467 ft 400 kts 259°
2026-05-06 12:15 55.48864 12.52792 18316 ft 403 kts 258°
2026-05-06 12:16 55.48318 12.47919 19101 ft 408 kts 258°
2026-05-06 12:16 55.47574 12.43100 19663 ft 411 kts 246°
2026-05-06 12:16 55.45988 12.38898 20277 ft 415 kts 228°
2026-05-06 12:16 55.43992 12.35182 20872 ft 420 kts 227°
2026-05-06 12:17 55.42003 12.31371 21548 ft 425 kts 228°
2026-05-06 12:17 55.40659 12.28756 22048 ft 427 kts 228°
2026-05-06 12:17 55.38673 12.24862 22775 ft 430 kts 229°
2026-05-06 12:17 55.36670 12.20928 23430 ft 434 kts 229°
2026-05-06 12:18 55.34648 12.16964 24059 ft 438 kts 229°
2026-05-06 12:18 55.32601 12.12955 24660 ft 442 kts 228°
2026-05-06 12:18 55.30540 12.08929 25249 ft 446 kts 228°
2026-05-06 12:18 55.28453 12.04861 25844 ft 450 kts 228°
2026-05-06 12:19 55.26352 12.00775 26380 ft 453 kts 228°
2026-05-06 12:19 55.24232 11.96656 26904 ft 457 kts 227°
2026-05-06 12:19 55.22091 11.92507 27440 ft 460 kts 227°
2026-05-06 12:19 55.19931 11.88356 27978 ft 463 kts 227°
2026-05-06 12:20 55.17716 11.84249 28454 ft 467 kts 226°
2026-05-06 12:20 55.15452 11.80135 28905 ft 470 kts 225°
2026-05-06 12:20 55.13173 11.76014 29350 ft 473 kts 225°
2026-05-06 12:20 55.10883 11.71868 29770 ft 475 kts 225°
2026-05-06 12:21 55.08617 11.67760 29922 ft 477 kts 225°
2026-05-06 12:21 55.06318 11.63583 29912 ft 476 kts 225°
2026-05-06 12:21 55.01738 11.55267 29909 ft 476 kts 225°
2026-05-06 12:22 54.97146 11.46960 29909 ft 477 kts 225°
2026-05-06 12:22 54.92355 11.38965 29911 ft 477 kts 222°
2026-05-06 12:23 54.87431 11.31222 29908 ft 478 kts 221°
2026-05-06 12:23 54.82507 11.23477 29908 ft 477 kts 221°
2026-05-06 12:24 54.77608 11.15715 29907 ft 477 kts 222°
2026-05-06 12:24 54.72712 11.07949 29906 ft 477 kts 222°
2026-05-06 12:25 54.67813 11.00202 29907 ft 477 kts 221°
2026-05-06 12:25 54.62909 10.92467 29907 ft 477 kts 221°
2026-05-06 12:26 54.58000 10.84759 29908 ft 477 kts 221°
2026-05-06 12:26 54.53097 10.77090 29907 ft 477 kts 221°
2026-05-06 12:27 54.48179 10.69422 29908 ft 477 kts 221°
2026-05-06 12:27 54.43243 10.61753 29907 ft 478 kts 221°
2026-05-06 12:28 54.38301 10.54099 29907 ft 478 kts 221°
2026-05-06 12:28 54.33355 10.46461 29909 ft 479 kts 221°
2026-05-06 12:29 54.28392 10.38831 29907 ft 480 kts 221°
2026-05-06 12:29 54.23421 10.31209 29908 ft 480 kts 221°
2026-05-06 12:30 54.18431 10.23591 29905 ft 481 kts 221°
2026-05-06 12:30 54.13444 10.15991 29907 ft 481 kts 221°
2026-05-06 12:31 54.08449 10.08413 29900 ft 481 kts 220°
2026-05-06 12:31 54.03437 10.00834 29888 ft 481 kts 220°
2026-05-06 12:32 53.98429 9.93281 29885 ft 481 kts 220°
2026-05-06 12:32 53.95209 9.88440 29887 ft 481 kts 220°
2026-05-06 12:33 53.94522 9.87409 29880 ft 482 kts 220°
2026-05-06 12:33 53.89527 9.79924 29873 ft 482 kts 220°
2026-05-06 12:34 53.84497 9.72411 29871 ft 481 kts 220°
2026-05-06 12:34 53.79474 9.64932 29873 ft 481 kts 220°
2026-05-06 12:35 53.74451 9.57482 29868 ft 480 kts 220°
2026-05-06 12:35 53.69427 9.50056 29869 ft 480 kts 220°
2026-05-06 12:36 53.64404 9.42652 29876 ft 479 kts 220°
2026-05-06 12:36 53.59379 9.35267 29872 ft 479 kts 220°
2026-05-06 12:37 53.54358 9.27910 29869 ft 479 kts 220°
2026-05-06 12:37 53.49319 9.20556 29873 ft 480 kts 220°
2026-05-06 12:38 53.44273 9.13212 29871 ft 480 kts 220°
2026-05-06 12:38 53.39222 9.05892 29870 ft 479 kts 220°
2026-05-06 12:39 53.34177 8.98601 29876 ft 479 kts 220°
2026-05-06 12:39 53.29123 8.91320 29882 ft 479 kts 220°
2026-05-06 12:40 53.24107 8.84117 29881 ft 480 kts 220°
2026-05-06 12:40 53.19035 8.76858 29877 ft 480 kts 220°
2026-05-06 12:41 53.13965 8.69624 29880 ft 480 kts 220°
2026-05-06 12:41 53.08890 8.62406 29883 ft 480 kts 220°
2026-05-06 12:42 53.03809 8.55203 29880 ft 480 kts 220°
2026-05-06 12:42 52.98721 8.48016 29875 ft 480 kts 220°
2026-05-06 12:43 52.93631 8.40847 29880 ft 481 kts 220°
2026-05-06 12:43 52.88530 8.33686 29872 ft 481 kts 220°
2026-05-06 12:44 52.83412 8.26523 29872 ft 482 kts 220°
2026-05-06 12:44 52.78294 8.19386 29870 ft 481 kts 220°
2026-05-06 12:45 52.73159 8.12244 29863 ft 482 kts 220°
2026-05-06 12:46 52.65441 8.01587 29859 ft 484 kts 218°
2026-05-06 12:46 52.60009 7.95036 29859 ft 484 kts 215°
2026-05-06 12:47 52.54487 7.88703 29862 ft 485 kts 214°
2026-05-06 12:47 52.48965 7.82331 29859 ft 485 kts 215°
2026-05-06 12:48 52.43464 7.75932 29861 ft 485 kts 215°
2026-05-06 12:48 52.37956 7.69517 29863 ft 486 kts 215°
2026-05-06 12:49 52.32440 7.63112 29861 ft 486 kts 215°
2026-05-06 12:49 52.26933 7.56743 29859 ft 485 kts 215°
2026-05-06 12:50 52.21422 7.50385 29861 ft 485 kts 215°
2026-05-06 12:50 52.15911 7.44050 29862 ft 485 kts 215°
2026-05-06 12:51 52.10423 7.37764 29862 ft 485 kts 215°
2026-05-06 12:51 52.04905 7.31461 29853 ft 485 kts 215°
2026-05-06 12:52 51.99387 7.25178 29849 ft 485 kts 215°
2026-05-06 12:52 51.93869 7.18911 29854 ft 484 kts 215°
2026-05-06 12:53 51.93420 7.18403 29852 ft 484 kts 215°
2026-05-06 12:53 51.89907 7.14427 29853 ft 484 kts 215°
2026-05-06 12:54 51.84390 7.08193 29850 ft 484 kts 214°
2026-05-06 12:54 51.78872 7.01978 29846 ft 484 kts 214°
2026-05-06 12:55 51.73350 6.95779 29835 ft 483 kts 214°
2026-05-06 12:55 51.67832 6.89606 29846 ft 483 kts 214°
2026-05-06 12:56 51.62309 6.83443 29846 ft 483 kts 214°
2026-05-06 12:56 51.56785 6.77297 29847 ft 483 kts 214°
2026-05-06 12:57 51.51267 6.71174 29760 ft 478 kts 214°
2026-05-06 12:57 51.48570 6.68188 29659 ft 463 kts 214°
2026-05-06 12:57 51.45970 6.65311 29547 ft 447 kts 214°
2026-05-06 12:57 51.43450 6.62531 29460 ft 432 kts 214°
2026-05-06 12:58 51.41019 6.59854 29379 ft 417 kts 214°
2026-05-06 12:58 51.38667 6.57267 29297 ft 404 kts 214°
2026-05-06 12:58 51.36386 6.54761 29175 ft 392 kts 214°
2026-05-06 12:58 51.34151 6.52310 28801 ft 388 kts 214°
2026-05-06 12:59 51.31914 6.49857 28112 ft 393 kts 214°
2026-05-06 12:59 51.29640 6.47366 27389 ft 399 kts 214°
2026-05-06 12:59 51.27365 6.44876 26656 ft 404 kts 214°
2026-05-06 12:59 51.25038 6.42334 25935 ft 408 kts 214°
2026-05-06 13:00 51.22689 6.39769 25186 ft 406 kts 214°
2026-05-06 13:00 51.20379 6.37253 24433 ft 400 kts 214°
2026-05-06 13:00 51.18092 6.34765 23585 ft 395 kts 214°
2026-05-06 13:00 51.15828 6.32307 22775 ft 391 kts 214°
2026-05-06 13:01 51.13597 6.29885 22423 ft 386 kts 214°
2026-05-06 13:01 51.11380 6.27478 21925 ft 388 kts 214°
2026-05-06 13:01 51.09127 6.25036 21411 ft 396 kts 214°
2026-05-06 13:01 51.06804 6.22519 20895 ft 410 kts 214°
2026-05-06 13:02 51.04434 6.19956 20337 ft 413 kts 214°
2026-05-06 13:02 51.02065 6.17400 19776 ft 410 kts 214°
2026-05-06 13:02 50.99797 6.14957 19237 ft 407 kts 214°
2026-05-06 13:02 50.97464 6.12445 18683 ft 403 kts 214°
2026-05-06 13:03 50.95157 6.09965 18155 ft 399 kts 214°
2026-05-06 13:03 50.92865 6.07503 17618 ft 396 kts 214°
2026-05-06 13:03 50.91360 6.05888 17265 ft 393 kts 214°
2026-05-06 13:03 50.88349 6.02662 16559 ft 389 kts 214°
2026-05-06 13:04 50.86869 6.01079 16210 ft 386 kts 214°
2026-05-06 13:04 50.84652 5.98709 15693 ft 383 kts 214°
2026-05-06 13:04 50.82467 5.96375 15200 ft 379 kts 214°
2026-05-06 13:04 50.80294 5.94056 14761 ft 374 kts 214°
2026-05-06 13:05 50.78149 5.91767 14278 ft 370 kts 214°
2026-05-06 13:05 50.76024 5.89504 13736 ft 368 kts 214°
2026-05-06 13:05 50.73900 5.87246 13174 ft 367 kts 214°
2026-05-06 13:05 50.71793 5.85009 12671 ft 364 kts 214°
2026-05-06 13:06 50.69713 5.82800 12404 ft 354 kts 214°
2026-05-06 13:06 50.67702 5.80667 12247 ft 341 kts 214°
2026-05-06 13:06 50.65775 5.78627 12109 ft 329 kts 214°
2026-05-06 13:06 50.63903 5.76648 11979 ft 317 kts 214°
2026-05-06 13:07 50.62132 5.74775 11875 ft 303 kts 216°
2026-05-06 13:07 50.60700 5.72498 11744 ft 286 kts 240°
2026-05-06 13:07 50.60060 5.69632 11577 ft 276 kts 262°
2026-05-06 13:07 50.60031 5.66620 11280 ft 277 kts 277°
2026-05-06 13:08 50.60553 5.63678 10982 ft 283 kts 292°
2026-05-06 13:08 50.61386 5.60816 10664 ft 290 kts 295°
2026-05-06 13:08 50.62259 5.57939 10324 ft 292 kts 295°
2026-05-06 13:08 50.63104 5.55074 10119 ft 283 kts 294°
2026-05-06 13:09 50.63894 5.52332 9930 ft 275 kts 294°
2026-05-06 13:09 50.64673 5.49600 9605 ft 272 kts 294°
2026-05-06 13:09 50.65191 5.46821 9288 ft 263 kts 271°
2026-05-06 13:09 50.64911 5.43980 9041 ft 268 kts 254°
2026-05-06 13:10 50.64400 5.41099 8748 ft 277 kts 255°
2026-05-06 13:10 50.63887 5.38155 8429 ft 279 kts 255°
2026-05-06 13:10 50.63378 5.35240 8102 ft 275 kts 255°
2026-05-06 13:10 50.62875 5.32352 7783 ft 271 kts 255°
2026-05-06 13:11 50.62382 5.29515 7484 ft 266 kts 255°
2026-05-06 13:11 50.61895 5.26720 7191 ft 264 kts 255°
2026-05-06 13:11 50.61410 5.23929 6902 ft 264 kts 255°
2026-05-06 13:11 50.60924 5.21137 6606 ft 264 kts 255°
2026-05-06 13:12 50.60437 5.18339 6311 ft 264 kts 255°
2026-05-06 13:12 50.59665 5.15784 5987 ft 258 kts 229°
2026-05-06 13:12 50.58355 5.13974 5720 ft 246 kts 209°
2026-05-06 13:12 50.56743 5.13336 5480 ft 236 kts 174°
2026-05-06 13:13 50.55301 5.14179 5416 ft 214 kts 142°
2026-05-06 13:13 50.54218 5.15719 4989 ft 210 kts 135°
2026-05-06 13:13 50.53208 5.17367 4594 ft 207 kts 129°
2026-05-06 13:13 50.52469 5.19222 4343 ft 194 kts 112°
2026-05-06 13:14 50.52161 5.21191 4159 ft 185 kts 92°
2026-05-06 13:14 50.52305 5.23179 3866 ft 181 kts 75°
2026-05-06 13:14 50.52703 5.25007 3619 ft 178 kts 65°
2026-05-06 13:14 50.53261 5.26748 3372 ft 174 kts 59°
2026-05-06 13:15 50.53915 5.28300 3176 ft 174 kts 52°
2026-05-06 13:15 50.54668 5.29811 2937 ft 176 kts 50°
2026-05-06 13:15 50.55457 5.31265 2737 ft 174 kts 47°
2026-05-06 13:15 50.56286 5.32620 2465 ft 167 kts 46°
2026-05-06 13:16 50.57067 5.33851 2263 ft 154 kts 46°
2026-05-06 13:16 50.57829 5.35060 2072 ft 158 kts 46°
2026-05-06 13:16 50.58591 5.36288 1839 ft 153 kts 45°
2026-05-06 13:16 50.59318 5.37443 1627 ft 145 kts 44°
2026-05-06 13:17 50.60032 5.38531 1423 ft 141 kts 43°
2026-05-06 13:17 50.60714 5.39605 1254 ft 138 kts 44°
2026-05-06 13:17 50.61380 5.40672 1077 ft 136 kts 44°
2026-05-06 13:17 50.62053 5.41736 872 ft 137 kts 44°
2026-05-06 13:18 50.62725 5.42797 720 ft 137 kts 45°
2026-05-06 13:18 50.63383 5.43844 637 ft 125 kts 45°
2026-05-06 13:18 50.63884 5.44640 631 ft 76 kts 45°
2026-05-06 13:18 50.64182 5.45111 622 ft 58 kts 45°
2026-05-06 13:19 50.64347 5.45372 614 ft 20 kts 45°
2026-05-06 13:19 50.64395 5.45530 616 ft 15 kts 95°
2026-05-06 13:19 50.64386 5.45699 610 ft 11 kts 100°
2026-05-06 13:19 50.64324 5.45700 610 ft 11 kts 220°
2026-05-06 13:20 50.64278 5.45628 615 ft 7 kts 225°
2026-05-06 13:20 50.64254 5.45591 612 ft 5 kts 225°
2026-05-06 13:20 50.64232 5.45555 612 ft 5 kts 225°
2026-05-06 13:20 50.64205 5.45531 617 ft 5 kts 189°
2026-05-06 13:21 50.64176 5.45556 612 ft 6 kts 137°
2026-05-06 13:21 50.64152 5.45592 612 ft 2 kts 136°
2026-05-06 13:21 50.64146 5.45601 627 ft 1 kts 136°
2026-05-06 13:21 50.64144 5.45603 627 ft 0 kts 136°